Погода в Трёхгорном

Россия / Челябинская область     54°49′04″N   58°26′47″E
темп.,
°C
ветер,
м/с
пор.,
м/с
влажн.,
%
обл.,
%
осадки,
мм/ч
давл.,
гПа
погр.,
м
19 июня, сб
сб1923:00+7зюз117656 0.0 102310
02:00+6юз22875 0.0 102423
05:00+6юз2280100 0.0 102440
08:00+12з2657100 0.0 1023476
11:00+12з3866100 0.0 1023819
14:00+16зсз6959100 0.1 10211451
17:00+12зюз2986100 0.4 1021750
20:00+16з5127581 0.1 10171024
20 июня, вс
вс2023:00+14з4139753 0.9 1017680
02:00+15з4139881 0.9 1015654
05:00+15з4139897 1.3 1015671
08:00+15зсз41298100 0.2 1015852
11:00+17сз6128951 0.4 10161320
14:00+22сз814350 0.1 10152022
17:00+21ссз712330 0.1 10161862
20:00+16ссз510480 0.0 10191277
21 июня, пн
пн2123:00+9зсз22690 0.0 102120
02:00+7зюз22785 0.0 102215
05:00+6зюз11785 0.0 102411
08:00+12ссз36485 0.0 1024828
11:00+16ссз473419 0.0 10231328
14:00+19ссз57305 0.0 10231542
17:00+19ссз473886 0.0 10221461
20:00+17св116222 0.0 102224
22 июня, вт
вт2223:00+11ююз11735 0.0 102310
02:00+10ю2283100 0.0 102217
05:00+13юз247093 0.0 102286
08:00+18зюз25625 0.0 1021400
11:00+23зсз485518 0.0 10191327
14:00+25сз58565 0.1 10181683
17:00+25сз611579 0.8 10181977
20:00+18с3996100 4.0 1019333
23 июня, ср
ср2323:00+16зюз22978 6.2 101842
02:00+15юз119760 0.4 101914
05:00+15з1197100 0.4 102012
08:00+18ссв119233 0.3 1020304
11:00+22с245462 0.4 10201485
14:00+24ссз4641100 0.0 10201652
17:00+24ссз354528 0.0 10201351
20:00+21в116821 0.0 101814